Retour au catalogue

STARLINK-6314

ActifCommunicationsVLEO
NORAD 56538·PAYLOAD·🇺🇸 United States

Lancé May 14, 2023 depuis Cape Canaveral Space Force Station

Loading…

Prochains Passages (prochaines 24 heures)

TLE

FraisSource: CelesTrak SupGP

Époque: Sep 15, 2026, 02:27 UTC

1 56538C 23065AM  26258.10256944 -.00028945  00000+0 -10487-2 0  2586
2 56538  43.0001 208.3963 0000613 259.0297 112.5290 15.27584587    15

Suivez STARLINK-6314 en temps réel avec AllMySat

Download on the App Store